This is the latest recevied weather packets stored in our database for station/object N6HGA-1. If no packets are shown the sender has not sent any weather packets the latest 10 day(s).
| Time | Temp. | Humidity | Pressure | Rain* | Wind** | Luminosity | Snow |
|---|---|---|---|---|---|---|---|
| 1788423659 | 20° C | 37% | - | 0 mm | - | - | - |
| 1788423359 | 19.44° C | 35% | - | 0 mm | - | - | - |
| 1788423101 | 20° C | 36% | - | 0 mm | - | - | - |
| 1788423057 | 20° C | 36% | - | 0 mm | - | - | - |
| 1788422756 | 19.44° C | 34% | - | 0 mm | - | - | - |
| 1788422551 | 19.44° C | 33% | - | 0 mm | - | - | - |
| 1788422551 | 18.89° C | 33% | - | 0 mm | - | - | - |
| 1788422455 | 19.44° C | 33% | - | 0 mm | - | - | - |
| 1788422153 | 18.89° C | 33% | - | 0 mm | - | - | - |
| 1788421853 | 18.33° C | 34% | - | 0 mm | - | - | - |
| 1788421551 | 17.78° C | 37% | - | 0 mm | - | - | - |
| 1788421249 | 17.22° C | 51% | - | 0 mm | - | - | - |
| 1788420949 | 17.22° C | 51% | - | 0 mm | - | - | - |
| 1788420648 | 17.78° C | 50% | - | 0 mm | - | - | - |
| 1788420347 | 17.78° C | 50% | - | 0 mm | - | - | - |
| 1788419746 | 18.33° C | 49% | - | 0 mm | - | - | - |
| 1788419142 | 18.33° C | 48% | - | 0 mm | - | - | - |
| 1788418541 | 17.78° C | 49% | - | 0 mm | - | - | - |
| 1788418241 | 17.22° C | 53% | - | 0 mm | - | - | - |
| 1788417940 | 17.22° C | 54% | - | 0 mm | - | - | - |
| 1788417640 | 17.78° C | 53% | - | 0 mm | - | - | - |
| 1788417340 | 17.78° C | 53% | - | 0 mm | - | - | - |
| 1788417039 | 17.78° C | 53% | - | 0 mm | - | - | - |
| 1788416739 | 17.78° C | 52% | - | 0 mm | - | - | - |
| 1788416439 | 17.78° C | 52% | - | 0 mm | - | - | - |
* Rain since midnight (hover to see other rain measurements)
** Current wind speed in m/s (hover to see current wind gust speed)